Time,TemperatureF,DewpointF,PressureIn,WindDirection,WindDirectionDegrees,WindSpeedMPH,WindSpeedGustMPH,Humidity,HourlyPrecipIn,Conditions,Clouds,dailyrainin,SoftwareType,DateUTC
2013-02-25 00:01:00,45.0,35.1,29.95,South,169,5.0,12.0,68,0.00,OVC,,0.00,WeatherDisplay:10.37,2013-02-25 08:01:00,
2013-02-25 00:11:00,44.3,36.1,29.95,South,187,1.0,8.0,73,0.00,OVC,,0.00,WeatherDisplay:10.37,2013-02-25 08:11:00,
2013-02-25 00:16:00,43.8,36.7,29.95,South,185,2.0,8.0,76,0.00,OVC,,0.00,WeatherDisplay:10.37,2013-02-25 08:16:00,
2013-02-25 00:21:00,43.2,37.2,29.95,South,187,1.0,9.0,79,0.00,OVC,,0.00,WeatherDisplay:10.37,2013-02-25 08:21:00,
2013-02-25 00:26:00,42.8,37.3,29.95,SSW,206,2.0,5.0,81,0.00,OVC,,0.00,WeatherDisplay:10.37,2013-02-25 08:26:00,
2013-02-25 00:31:00,42.3,37.9,29.95,SSW,199,1.0,7.0,84,0.01,RA,,0.01,WeatherDisplay:10.37,2013-02-25 08:31:00,
2013-02-25 00:36:00,41.9,37.7,29.95,South,176,1.0,5.0,85,0.01,RA,,0.02,WeatherDisplay:10.37,2013-02-25 08:36:00,
2013-02-25 00:41:00,41.6,38.0,29.94,SSW,195,2.0,6.0,87,0.00,RA,,0.02,WeatherDisplay:10.37,2013-02-25 08:41:00,
2013-02-25 00:46:00,41.4,37.8,29.94,South,179,1.0,7.0,87,0.01,RA,,0.03,WeatherDisplay:10.37,2013-02-25 08:46:00,
2013-02-25 00:51:00,41.2,37.9,29.94,South,185,2.0,7.0,88,0.00,RA,,0.03,WeatherDisplay:10.37,2013-02-25 08:51:00,
2013-02-25 00:56:00,41.1,37.8,29.93,South,176,2.0,7.0,88,0.00,OVC,,0.03,WeatherDisplay:10.37,2013-02-25 08:56:00,
2013-02-25 01:01:00,41.0,38.0,29.93,South,170,1.0,4.0,89,0.00,OVC,,0.03,WeatherDisplay:10.37,2013-02-25 09:01:00,
2013-02-25 01:11:00,40.8,38.1,29.93,SSE,157,1.0,5.0,90,0.00,RA,,0.04,WeatherDisplay:10.37,2013-02-25 09:11:00,
2013-02-25 01:16:00,40.7,37.7,29.93,SSE,159,1.0,5.0,89,0.00,-RA,,0.04,WeatherDisplay:10.37,2013-02-25 09:16:00,
2013-02-25 01:21:00,40.7,38.0,29.93,SSE,163,1.0,5.0,90,0.00,-RA,,0.04,WeatherDisplay:10.37,2013-02-25 09:21:00,
2013-02-25 01:26:00,40.6,37.9,29.92,South,171,0.0,3.0,90,0.01,-RA,,0.05,WeatherDisplay:10.37,2013-02-25 09:26:00,
2013-02-25 01:31:00,40.6,38.2,29.92,SSW,193,0.0,1.0,91,0.00,-RA,,0.05,WeatherDisplay:10.37,2013-02-25 09:31:00,
2013-02-25 01:36:00,40.4,38.0,29.92,SE,145,0.0,3.0,91,0.00,-RA,,0.05,WeatherDisplay:10.37,2013-02-25 09:36:00,
2013-02-25 01:41:00,40.4,38.3,29.92,SE,145,0.0,1.0,92,0.00,-RA,,0.05,WeatherDisplay:10.37,2013-02-25 09:41:00,
2013-02-25 01:46:00,40.3,38.2,29.92,SSE,150,0.0,2.0,92,0.00,-RA,,0.05,WeatherDisplay:10.37,2013-02-25 09:46:00,
2013-02-25 01:51:00,40.3,38.2,29.92,SSE,150,0.0,1.0,92,0.01,-RA,,0.06,WeatherDisplay:10.37,2013-02-25 09:51:00,
2013-02-25 01:56:00,40.3,38.4,29.92,SSE,156,0.0,1.0,93,0.00,-RA,,0.06,WeatherDisplay:10.37,2013-02-25 09:56:00,
2013-02-25 02:01:00,40.2,38.6,29.91,SSE,156,0.0,1.0,94,0.00,-RA,,0.06,WeatherDisplay:10.37,2013-02-25 10:01:00,
2013-02-25 02:11:00,40.1,38.5,29.91,SSE,153,0.0,2.0,94,0.00,-RA,,0.06,WeatherDisplay:10.37,2013-02-25 10:11:00,
2013-02-25 02:16:00,40.1,38.5,29.91,SE,128,0.0,2.0,94,0.00,-RA,,0.06,WeatherDisplay:10.37,2013-02-25 10:16:00,
2013-02-25 02:21:00,40.1,38.5,29.91,SE,134,1.0,4.0,94,0.01,-RA,,0.07,WeatherDisplay:10.37,2013-02-25 10:21:00,
2013-02-25 02:26:00,40.1,38.5,29.91,SSE,156,0.0,3.0,94,0.00,-RA,,0.07,WeatherDisplay:10.37,2013-02-25 10:26:00,
2013-02-25 02:31:00,40.2,38.6,29.91,SSW,194,0.0,3.0,94,0.00,-RA,,0.07,WeatherDisplay:10.37,2013-02-25 10:31:00,
2013-02-25 02:36:00,40.3,38.7,29.91,SSE,166,1.0,4.0,94,0.01,-RA,,0.08,WeatherDisplay:10.37,2013-02-25 10:36:00,
2013-02-25 02:41:00,40.3,38.7,29.91,SSE,162,1.0,4.0,94,0.00,-RA,,0.08,WeatherDisplay:10.37,2013-02-25 10:41:00,
2013-02-25 02:46:00,40.3,38.7,29.90,SSW,197,1.0,5.0,94,0.00,-RA,,0.08,WeatherDisplay:10.37,2013-02-25 10:46:00,
2013-02-25 02:51:00,40.3,38.7,29.90,SSE,158,2.0,4.0,94,0.00,-RA,,0.08,WeatherDisplay:10.37,2013-02-25 10:51:00,
2013-02-25 02:56:00,40.4,38.8,29.90,SSE,147,1.0,6.0,94,0.00,-RA,,0.08,WeatherDisplay:10.37,2013-02-25 10:56:00,
2013-02-25 03:01:00,40.4,38.8,29.90,SE,141,3.0,8.0,94,0.00,OVC,,0.08,WeatherDisplay:10.37,2013-02-25 11:01:00,
2013-02-25 03:11:00,40.6,38.8,29.90,SSW,207,2.0,7.0,93,0.00,OVC,,0.08,WeatherDisplay:10.37,2013-02-25 11:11:00,
2013-02-25 03:16:00,40.8,38.9,29.90,SSW,196,3.0,10.0,93,0.00,OVC,,0.08,WeatherDisplay:10.37,2013-02-25 11:16:00,
2013-02-25 03:21:00,40.9,38.8,29.90,SSW,200,3.0,8.0,92,0.00,OVC,,0.08,WeatherDisplay:10.37,2013-02-25 11:21:00,
2013-02-25 03:26:00,40.9,38.8,29.90,SSW,196,2.0,9.0,92,0.00,OVC,,0.08,WeatherDisplay:10.37,2013-02-25 11:26:00,
2013-02-25 03:31:00,41.0,38.9,29.91,SSW,203,3.0,10.0,92,0.00,OVC,,0.08,WeatherDisplay:10.37,2013-02-25 11:31:00,
2013-02-25 03:36:00,41.1,39.0,29.90,SW,224,2.0,7.0,92,0.00,OVC,,0.08,WeatherDisplay:10.37,2013-02-25 11:36:00,
2013-02-25 03:41:00,41.1,39.0,29.91,SSE,164,2.0,7.0,92,0.00,OVC,,0.08,WeatherDisplay:10.37,2013-02-25 11:41:00,
2013-02-25 03:46:00,41.2,39.1,29.91,South,169,3.0,12.0,92,0.00,OVC,,0.08,WeatherDisplay:10.37,2013-02-25 11:46:00,
2013-02-25 03:51:00,41.3,39.1,29.91,South,186,2.0,10.0,92,0.00,OVC,,0.08,WeatherDisplay:10.37,2013-02-25 11:51:00,
2013-02-25 03:56:00,41.3,38.9,29.91,South,179,3.0,9.0,91,0.00,OVC,,0.08,WeatherDisplay:10.37,2013-02-25 11:56:00,
2013-02-25 04:01:00,41.4,38.9,29.91,SE,139,3.0,13.0,91,0.00,OVC,,0.08,WeatherDisplay:10.37,2013-02-25 12:01:00,
2013-02-25 04:11:00,41.5,39.1,29.91,SSW,192,5.0,10.0,91,0.00,OVC,,0.08,WeatherDisplay:10.37,2013-02-25 12:11:00,
2013-02-25 04:16:00,41.6,38.9,29.91,South,183,5.0,12.0,90,0.00,OVC,,0.08,WeatherDisplay:10.37,2013-02-25 12:16:00,
2013-02-25 04:21:00,41.7,39.0,29.91,South,188,3.0,12.0,90,0.00,OVC,,0.08,WeatherDisplay:10.37,2013-02-25 12:21:00,
2013-02-25 04:26:00,41.6,38.9,29.91,South,183,2.0,10.0,90,0.00,OVC,,0.08,WeatherDisplay:10.37,2013-02-25 12:26:00,
2013-02-25 04:31:00,41.6,38.6,29.91,SSE,168,6.0,12.0,89,0.00,OVC,,0.08,WeatherDisplay:10.37,2013-02-25 12:31:00,
2013-02-25 04:36:00,41.7,39.0,29.91,SSE,159,3.0,15.0,90,0.00,OVC,,0.08,WeatherDisplay:10.37,2013-02-25 12:36:00,
2013-02-25 05:01:00,41.5,38.5,29.92,South,178,5.0,12.0,89,0.00,OVC,,0.08,WeatherDisplay:10.37,2013-02-25 13:01:00,
2013-02-25 05:11:00,41.6,38.4,29.92,South,190,2.0,15.0,88,0.00,OVC,,0.08,WeatherDisplay:10.37,2013-02-25 13:11:00,
2013-02-25 05:21:00,41.6,38.3,29.93,SW,235,3.0,16.0,88,0.00,OVC,,0.08,WeatherDisplay:10.37,2013-02-25 13:21:00,
2013-02-25 05:26:00,41.6,38.3,29.94,SW,217,6.0,12.0,88,0.00,OVC,,0.08,WeatherDisplay:10.37,2013-02-25 13:26:00,
2013-02-25 05:36:00,41.7,38.4,29.94,SSW,198,2.0,7.0,88,0.00,OVC,,0.08,WeatherDisplay:10.37,2013-02-25 13:36:00,
2013-02-25 05:41:00,41.6,38.4,29.94,SSW,203,3.0,13.0,88,0.00,OVC,,0.08,WeatherDisplay:10.37,2013-02-25 13:41:00,
2013-02-25 05:46:00,41.7,38.4,29.94,South,181,1.0,13.0,88,0.00,OVC,,0.08,WeatherDisplay:10.37,2013-02-25 13:46:00,
2013-02-25 05:51:00,41.7,38.4,29.93,South,185,2.0,8.0,88,0.00,OVC,,0.08,WeatherDisplay:10.37,2013-02-25 13:51:00,
2013-02-25 06:01:00,41.7,38.4,29.94,SSW,213,5.0,13.0,88,0.00,OVC,,0.08,WeatherDisplay:10.37,2013-02-25 14:01:00,
2013-02-25 06:11:00,41.8,38.2,29.94,SSW,208,5.0,12.0,87,0.00,OVC,,0.08,WeatherDisplay:10.37,2013-02-25 14:11:00,
2013-02-25 06:21:00,41.7,38.1,29.94,SSW,192,3.0,12.0,87,0.00,OVC,,0.08,WeatherDisplay:10.37,2013-02-25 14:21:00,
2013-02-25 06:26:00,41.6,38.1,29.95,South,185,3.0,10.0,87,0.00,OVC,,0.08,WeatherDisplay:10.37,2013-02-25 14:26:00,
2013-02-25 06:36:00,41.6,37.8,29.95,SSW,201,5.0,10.0,86,0.00,OVC,,0.08,WeatherDisplay:10.37,2013-02-25 14:36:00,
2013-02-25 06:41:00,41.7,37.8,29.95,South,191,2.0,8.0,86,0.00,OVC,,0.08,WeatherDisplay:10.37,2013-02-25 14:41:00,
2013-02-25 06:46:00,41.7,37.8,29.95,SSW,207,5.0,14.0,86,0.00,OVC,,0.08,WeatherDisplay:10.37,2013-02-25 14:46:00,
2013-02-25 06:51:00,41.7,37.5,29.95,SSW,213,5.0,20.0,85,0.00,OVC,,0.08,WeatherDisplay:10.37,2013-02-25 14:51:00,
2013-02-25 06:56:00,41.7,37.5,29.94,SSW,200,3.0,14.0,85,0.00,OVC,,0.08,WeatherDisplay:10.37,2013-02-25 14:56:00,
2013-02-25 07:01:00,41.7,37.8,29.94,SSW,209,2.0,15.0,86,0.00,OVC,,0.08,WeatherDisplay:10.37,2013-02-25 15:01:00,
2013-02-25 07:11:00,41.7,37.8,29.95,SSW,194,3.0,9.0,86,0.00,OVC,,0.08,WeatherDisplay:10.37,2013-02-25 15:11:00,
2013-02-25 07:21:00,41.7,37.8,29.95,WSW,239,3.0,9.0,86,0.00,OVC,,0.08,WeatherDisplay:10.37,2013-02-25 15:21:00,
2013-02-25 07:26:00,41.6,37.7,29.95,SW,230,2.0,8.0,86,0.00,OVC,,0.08,WeatherDisplay:10.37,2013-02-25 15:26:00,
2013-02-25 07:31:00,41.6,37.8,29.95,SW,217,2.0,10.0,86,0.00,OVC,,0.08,WeatherDisplay:10.37,2013-02-25 15:31:00,
2013-02-25 07:36:00,41.7,37.8,29.95,SSW,209,1.0,12.0,86,0.00,OVC,,0.08,WeatherDisplay:10.37,2013-02-25 15:36:00,
2013-02-25 07:41:00,41.7,37.8,29.95,SW,222,5.0,10.0,86,0.00,OVC,,0.08,WeatherDisplay:10.37,2013-02-25 15:41:00,
2013-02-25 07:46:00,41.6,37.4,29.95,WSW,241,8.0,14.0,85,0.00,OVC,,0.08,WeatherDisplay:10.37,2013-02-25 15:46:00,
2013-02-25 07:51:00,41.5,37.3,29.95,SW,234,6.0,18.0,85,0.00,OVC,,0.08,WeatherDisplay:10.37,2013-02-25 15:51:00,
2013-02-25 07:56:00,41.4,37.2,29.96,SW,216,3.0,13.0,85,0.00,OVC,,0.08,WeatherDisplay:10.37,2013-02-25 15:56:00,
2013-02-25 08:01:00,41.4,37.2,29.97,SW,231,5.0,13.0,85,0.00,OVC,,0.08,WeatherDisplay:10.37,2013-02-25 16:01:00,
2013-02-25 08:11:00,41.4,37.2,29.97,SW,232,3.0,12.0,85,0.00,OVC,,0.08,WeatherDisplay:10.37,2013-02-25 16:11:00,
2013-02-25 08:16:00,41.4,37.2,29.97,SW,228,3.0,9.0,85,0.00,OVC,,0.08,WeatherDisplay:10.37,2013-02-25 16:16:00,
2013-02-25 08:21:00,41.4,37.5,29.97,SW,234,3.0,13.0,86,0.00,OVC,,0.08,WeatherDisplay:10.37,2013-02-25 16:21:00,
2013-02-25 08:26:00,41.4,37.5,29.98,WSW,244,5.0,12.0,86,0.00,OVC,,0.08,WeatherDisplay:10.37,2013-02-25 16:26:00,
2013-02-25 08:31:00,41.3,37.4,29.98,WSW,243,5.0,15.0,86,0.00,OVC,,0.08,WeatherDisplay:10.37,2013-02-25 16:31:00,
2013-02-25 08:36:00,41.2,37.3,29.99,SW,226,2.0,12.0,86,0.00,OVC,,0.08,WeatherDisplay:10.37,2013-02-25 16:36:00,
2013-02-25 08:46:00,41.2,37.3,30.00,SW,225,3.0,8.0,86,0.00,OVC,,0.08,WeatherDisplay:10.37,2013-02-25 16:46:00,
2013-02-25 08:51:00,41.3,37.4,30.00,SW,227,3.0,10.0,86,0.00,OVC,,0.08,WeatherDisplay:10.37,2013-02-25 16:51:00,
2013-02-25 08:56:00,41.4,37.5,30.00,WSW,237,3.0,12.0,86,0.00,OVC,,0.08,WeatherDisplay:10.37,2013-02-25 16:56:00,
2013-02-25 09:01:00,41.4,37.5,30.00,WSW,237,2.0,9.0,86,0.00,OVC,,0.08,WeatherDisplay:10.37,2013-02-25 17:01:00,
2013-02-25 09:11:00,41.5,37.6,30.00,SW,218,2.0,9.0,86,0.00,OVC,,0.08,WeatherDisplay:10.37,2013-02-25 17:11:00,
2013-02-25 09:16:00,41.5,37.6,29.99,SW,216,3.0,12.0,86,0.00,OVC,,0.08,WeatherDisplay:10.37,2013-02-25 17:16:00,
2013-02-25 09:21:00,41.7,37.8,30.00,SW,236,2.0,9.0,86,0.00,OVC,,0.08,WeatherDisplay:10.37,2013-02-25 17:21:00,
2013-02-25 09:26:00,41.7,37.5,30.00,SW,229,6.0,12.0,85,0.00,OVC,,0.08,WeatherDisplay:10.37,2013-02-25 17:26:00,
2013-02-25 09:31:00,41.9,38.0,30.00,SW,235,2.0,12.0,86,0.00,OVC,,0.08,WeatherDisplay:10.37,2013-02-25 17:31:00,
2013-02-25 09:36:00,41.9,38.0,29.99,WSW,237,2.0,10.0,86,0.00,OVC,,0.08,WeatherDisplay:10.37,2013-02-25 17:36:00,
2013-02-25 09:41:00,42.0,38.1,30.00,SW,218,2.0,9.0,86,0.00,OVC,,0.08,WeatherDisplay:10.37,2013-02-25 17:41:00,
2013-02-25 09:46:00,42.2,38.3,30.00,SSW,207,1.0,7.0,86,0.00,OVC,,0.08,WeatherDisplay:10.37,2013-02-25 17:46:00,
2013-02-25 09:51:00,42.2,38.0,30.00,SSW,206,3.0,12.0,85,0.00,OVC,,0.08,WeatherDisplay:10.37,2013-02-25 17:51:00,
2013-02-25 09:56:00,42.2,38.0,30.00,SW,229,3.0,10.0,85,0.00,OVC,,0.08,WeatherDisplay:10.37,2013-02-25 17:56:00,
2013-02-25 10:01:00,42.3,37.8,30.01,SW,227,5.0,12.0,84,0.00,OVC,,0.08,WeatherDisplay:10.37,2013-02-25 18:01:00,
2013-02-25 10:11:00,42.5,38.0,30.01,WSW,247,2.0,10.0,84,0.00,OVC,,0.08,WeatherDisplay:10.37,2013-02-25 18:11:00,
2013-02-25 10:16:00,42.6,38.1,30.01,WSW,247,1.0,12.0,84,0.00,BKN,,0.08,WeatherDisplay:10.37,2013-02-25 18:16:00,
2013-02-25 10:21:00,42.7,37.9,30.01,WSW,252,2.0,12.0,83,0.00,BKN,,0.08,WeatherDisplay:10.37,2013-02-25 18:21:00,
2013-02-25 10:26:00,42.7,37.9,30.02,WSW,237,1.0,7.0,83,0.00,BKN,,0.08,WeatherDisplay:10.37,2013-02-25 18:26:00,
2013-02-25 10:31:00,42.7,37.9,30.02,SSW,207,2.0,6.0,83,0.00,BKN,,0.08,WeatherDisplay:10.37,2013-02-25 18:31:00,
2013-02-25 10:36:00,42.8,38.0,30.02,SW,217,1.0,6.0,83,0.00,BKN,,0.08,WeatherDisplay:10.37,2013-02-25 18:36:00,
2013-02-25 10:46:00,43.0,37.2,30.02,SSW,193,3.0,9.0,80,0.00,BKN,,0.08,WeatherDisplay:10.37,2013-02-25 18:46:00,
2013-02-25 10:51:00,43.1,37.3,30.03,SSW,200,2.0,9.0,80,0.00,BKN,,0.08,WeatherDisplay:10.37,2013-02-25 18:51:00,
2013-02-25 10:56:00,43.2,37.4,30.03,SW,224,2.0,6.0,80,0.00,BKN,,0.08,WeatherDisplay:10.37,2013-02-25 18:56:00,
2013-02-25 11:01:00,43.3,37.2,30.03,SSW,199,2.0,6.0,79,0.00,CLR,,0.08,WeatherDisplay:10.37,2013-02-25 19:01:00,
2013-02-25 11:11:00,43.5,37.1,30.04,SW,224,1.0,10.0,78,0.00,CLR,,0.08,WeatherDisplay:10.37,2013-02-25 19:11:00,
2013-02-25 11:16:00,43.6,36.9,30.04,SSW,192,2.0,6.0,77,0.00,CLR,,0.08,WeatherDisplay:10.37,2013-02-25 19:16:00,
2013-02-25 11:21:00,43.6,36.9,30.04,SSW,206,2.0,9.0,77,0.00,CLR,,0.08,WeatherDisplay:10.37,2013-02-25 19:21:00,
2013-02-25 11:26:00,43.7,36.6,30.05,SSW,212,5.0,8.0,76,0.00,CLR,,0.08,WeatherDisplay:10.37,2013-02-25 19:26:00,
2013-02-25 11:31:00,43.8,36.7,30.05,WSW,237,1.0,10.0,76,0.00,CLR,,0.08,WeatherDisplay:10.37,2013-02-25 19:31:00,
2013-02-25 11:36:00,43.9,36.8,30.05,SW,236,2.0,3.0,76,0.00,CLR,,0.08,WeatherDisplay:10.37,2013-02-25 19:36:00,
2013-02-25 11:41:00,44.1,36.7,30.06,SSW,201,2.0,4.0,75,0.00,CLR,,0.08,WeatherDisplay:10.37,2013-02-25 19:41:00,
2013-02-25 11:46:00,44.2,37.1,30.06,WSW,243,1.0,5.0,76,0.00,CLR,,0.08,WeatherDisplay:10.37,2013-02-25 19:46:00,
2013-02-25 11:51:00,44.4,36.6,30.06,SSE,151,2.0,4.0,74,0.00,CLR,,0.08,WeatherDisplay:10.37,2013-02-25 19:51:00,
2013-02-25 11:56:00,44.6,36.5,30.06,South,179,1.0,5.0,73,0.00,CLR,,0.08,WeatherDisplay:10.37,2013-02-25 19:56:00,
2013-02-25 12:01:00,44.8,36.3,30.06,SW,223,2.0,9.0,72,0.00,CLR,,0.08,WeatherDisplay:10.37,2013-02-25 20:01:00,
2013-02-25 12:11:00,46.3,37.7,30.06,SW,229,1.0,6.0,72,0.00,CLR,,0.08,WeatherDisplay:10.37,2013-02-25 20:11:00,
2013-02-25 12:16:00,47.0,37.7,30.07,SW,216,2.0,9.0,70,0.00,CLR,,0.08,WeatherDisplay:10.37,2013-02-25 20:16:00,
2013-02-25 12:21:00,47.5,37.8,30.07,SW,224,1.0,4.0,69,0.00,CLR,,0.08,WeatherDisplay:10.37,2013-02-25 20:21:00,
2013-02-25 12:26:00,47.9,37.4,30.07,SSW,205,5.0,12.0,67,0.00,CLR,,0.08,WeatherDisplay:10.37,2013-02-25 20:26:00,
2013-02-25 12:31:00,47.4,37.0,30.07,SSW,202,3.0,7.0,67,0.00,CLR,,0.08,WeatherDisplay:10.37,2013-02-25 20:31:00,
2013-02-25 12:36:00,47.3,37.6,30.07,SSW,195,1.0,7.0,69,0.00,CLR,,0.08,WeatherDisplay:10.37,2013-02-25 20:36:00,
2013-02-25 12:41:00,47.2,36.8,30.07,South,181,2.0,8.0,67,0.00,CLR,,0.08,WeatherDisplay:10.37,2013-02-25 20:41:00,
2013-02-25 12:46:00,47.2,37.2,30.07,South,184,1.0,5.0,68,0.00,CLR,,0.08,WeatherDisplay:10.37,2013-02-25 20:46:00,
2013-02-25 12:51:00,47.4,36.9,30.07,SW,219,2.0,6.0,67,0.00,CLR,,0.08,WeatherDisplay:10.37,2013-02-25 20:51:00,
2013-02-25 12:56:00,47.7,37.3,30.07,WSW,257,2.0,7.0,67,0.00,CLR,,0.08,WeatherDisplay:10.37,2013-02-25 20:56:00,
2013-02-25 13:01:00,48.2,37.8,30.07,WSW,246,1.0,6.0,67,0.00,CLR,,0.08,WeatherDisplay:10.37,2013-02-25 21:01:00,
2013-02-25 13:11:00,48.8,36.8,30.08,SSW,196,3.0,12.0,63,0.00,CLR,,0.08,WeatherDisplay:10.37,2013-02-25 21:11:00,
2013-02-25 13:16:00,48.8,36.8,30.08,SSW,192,2.0,7.0,63,0.00,CLR,,0.08,WeatherDisplay:10.37,2013-02-25 21:16:00,
2013-02-25 13:21:00,48.8,36.4,30.08,SW,230,2.0,9.0,62,0.00,CLR,,0.08,WeatherDisplay:10.37,2013-02-25 21:21:00,
2013-02-25 13:26:00,48.6,36.2,30.08,WSW,238,2.0,9.0,62,0.00,CLR,,0.08,WeatherDisplay:10.37,2013-02-25 21:26:00,
2013-02-25 13:31:00,48.2,36.5,30.09,SW,215,3.0,7.0,64,0.00,CLR,,0.08,WeatherDisplay:10.37,2013-02-25 21:31:00,
2013-02-25 13:36:00,47.6,36.5,30.09,SSW,199,2.0,9.0,65,0.00,CLR,,0.08,WeatherDisplay:10.37,2013-02-25 21:36:00,
2013-02-25 13:41:00,47.5,36.7,30.09,SSE,161,1.0,4.0,66,0.00,CLR,,0.08,WeatherDisplay:10.37,2013-02-25 21:41:00,
2013-02-25 13:46:00,47.4,36.6,30.09,SSE,168,1.0,5.0,66,0.00,CLR,,0.08,WeatherDisplay:10.37,2013-02-25 21:46:00,
2013-02-25 13:51:00,47.8,37.0,30.08,SW,229,2.0,8.0,66,0.00,CLR,,0.08,WeatherDisplay:10.37,2013-02-25 21:51:00,
2013-02-25 13:56:00,48.8,37.1,30.08,SW,228,2.0,7.0,64,0.00,CLR,,0.08,WeatherDisplay:10.37,2013-02-25 21:56:00,
2013-02-25 14:01:00,49.0,35.7,30.08,SW,220,5.0,8.0,60,0.00,CLR,,0.08,WeatherDisplay:10.37,2013-02-25 22:01:00,
2013-02-25 14:11:00,48.7,35.5,30.09,WSW,249,6.0,10.0,60,0.00,CLR,,0.08,WeatherDisplay:10.37,2013-02-25 22:11:00,
2013-02-25 14:16:00,48.5,35.2,30.09,SW,231,2.0,8.0,60,0.00,CLR,,0.08,WeatherDisplay:10.37,2013-02-25 22:16:00,
2013-02-25 14:21:00,48.5,35.2,30.09,SSW,207,1.0,5.0,60,0.00,CLR,,0.08,WeatherDisplay:10.37,2013-02-25 22:21:00,
2013-02-25 14:26:00,48.3,34.2,30.09,SW,221,5.0,8.0,58,0.00,CLR,,0.08,WeatherDisplay:10.37,2013-02-25 22:26:00,
2013-02-25 14:31:00,48.1,34.0,30.10,SW,227,1.0,8.0,58,0.00,CLR,,0.08,WeatherDisplay:10.37,2013-02-25 22:31:00,
2013-02-25 14:36:00,48.0,33.9,30.09,WSW,246,2.0,12.0,58,0.00,CLR,,0.08,WeatherDisplay:10.37,2013-02-25 22:36:00,
2013-02-25 14:41:00,48.1,33.6,30.09,WSW,255,2.0,6.0,57,0.00,CLR,,0.08,WeatherDisplay:10.37,2013-02-25 22:41:00,
2013-02-25 14:46:00,48.3,32.4,30.09,WSW,242,5.0,9.0,54,0.00,CLR,,0.08,WeatherDisplay:10.37,2013-02-25 22:46:00,
2013-02-25 14:51:00,48.3,32.4,30.10,SW,218,2.0,9.0,54,0.00,CLR,,0.08,WeatherDisplay:10.37,2013-02-25 22:51:00,
2013-02-25 14:56:00,48.2,33.2,30.10,SW,236,2.0,9.0,56,0.00,CLR,,0.08,WeatherDisplay:10.37,2013-02-25 22:56:00,
2013-02-25 15:01:00,47.8,32.8,30.10,SW,232,1.0,13.0,56,0.00,CLR,,0.08,WeatherDisplay:10.37,2013-02-25 23:01:00,
2013-02-25 15:11:00,46.1,34.2,30.11,WSW,237,3.0,9.0,63,0.00,CLR,,0.08,WeatherDisplay:10.37,2013-02-25 23:11:00,
2013-02-25 15:16:00,45.0,35.1,30.12,West,259,6.0,13.0,68,0.00,CLR,,0.08,WeatherDisplay:10.37,2013-02-25 23:16:00,
2013-02-25 15:21:00,44.1,35.3,30.12,WSW,250,5.0,12.0,71,0.00,CLR,,0.08,WeatherDisplay:10.37,2013-02-25 23:21:00,
2013-02-25 15:26:00,44.0,34.8,30.12,SW,223,1.0,5.0,70,0.00,CLR,,0.08,WeatherDisplay:10.37,2013-02-25 23:26:00,
2013-02-25 15:36:00,43.9,36.1,30.12,SSE,155,1.0,2.0,74,0.00,CLR,,0.08,WeatherDisplay:10.37,2013-02-25 23:36:00,
2013-02-25 15:41:00,43.9,37.5,30.11,SSE,158,0.0,1.0,78,0.00,CLR,,0.08,WeatherDisplay:10.37,2013-02-25 23:41:00,
2013-02-25 15:46:00,43.9,37.5,30.11,SSE,162,0.0,2.0,78,0.00,CLR,,0.08,WeatherDisplay:10.37,2013-02-25 23:46:00,
2013-02-25 15:56:00,44.4,37.0,30.12,South,171,0.0,1.0,75,0.00,CLR,,0.08,WeatherDisplay:10.37,2013-02-25 23:56:00,
2013-02-25 16:01:00,45.0,37.2,30.12,South,173,0.0,1.0,74,0.00,CLR,,0.08,WeatherDisplay:10.37,2013-02-26 00:01:00,
2013-02-25 16:11:00,45.8,39.3,30.13,SSE,157,0.0,1.0,78,0.00,CLR,,0.08,WeatherDisplay:10.37,2013-02-26 00:11:00,
2013-02-25 16:16:00,46.0,37.1,30.13,South,186,0.0,1.0,71,0.00,CLR,,0.08,WeatherDisplay:10.37,2013-02-26 00:16:00,
2013-02-25 16:21:00,46.4,36.4,30.13,SSW,207,0.0,1.0,68,0.00,CLR,,0.08,WeatherDisplay:10.37,2013-02-26 00:21:00,
2013-02-25 16:26:00,46.8,35.3,30.14,WSW,253,2.0,5.0,64,0.00,CLR,,0.08,WeatherDisplay:10.37,2013-02-26 00:26:00,
2013-02-25 16:31:00,47.1,35.1,30.14,SW,231,0.0,3.0,63,0.00,CLR,,0.08,WeatherDisplay:10.37,2013-02-26 00:31:00,
2013-02-25 16:36:00,47.2,33.6,30.13,SW,223,1.0,3.0,59,0.00,CLR,,0.08,WeatherDisplay:10.37,2013-02-26 00:36:00,
2013-02-25 16:41:00,47.2,33.2,30.14,West,270,1.0,4.0,58,0.00,CLR,,0.08,WeatherDisplay:10.37,2013-02-26 00:41:00,
2013-02-25 16:46:00,47.4,32.9,30.14,WSW,249,1.0,4.0,57,0.00,CLR,,0.08,WeatherDisplay:10.37,2013-02-26 00:46:00,
2013-02-25 16:51:00,47.4,33.4,30.15,SW,219,1.0,8.0,58,0.00,CLR,,0.08,WeatherDisplay:10.37,2013-02-26 00:51:00,
2013-02-25 16:56:00,47.3,32.8,30.15,South,182,3.0,7.0,57,0.00,CLR,,0.08,WeatherDisplay:10.37,2013-02-26 00:56:00,
2013-02-25 17:01:00,47.2,32.3,30.15,WSW,244,2.0,5.0,56,0.00,CLR,,0.08,WeatherDisplay:10.37,2013-02-26 01:01:00,
2013-02-25 17:11:00,46.8,33.3,30.16,SW,226,2.0,7.0,59,0.00,CLR,,0.08,WeatherDisplay:10.37,2013-02-26 01:11:00,
2013-02-25 17:16:00,46.6,33.4,30.16,SW,236,1.0,2.0,60,0.00,CLR,,0.08,WeatherDisplay:10.37,2013-02-26 01:16:00,
2013-02-25 17:21:00,46.3,33.6,30.16,SW,223,1.0,3.0,61,0.00,CLR,,0.08,WeatherDisplay:10.37,2013-02-26 01:21:00,
2013-02-25 17:26:00,46.0,33.7,30.16,SW,223,2.0,4.0,62,0.00,CLR,,0.08,WeatherDisplay:10.37,2013-02-26 01:26:00,
2013-02-25 17:31:00,45.7,33.8,30.17,SSW,212,1.0,4.0,63,0.00,CLR,,0.08,WeatherDisplay:10.37,2013-02-26 01:31:00,
2013-02-25 17:36:00,45.5,33.6,30.17,SSW,203,0.0,2.0,63,0.00,CLR,,0.08,WeatherDisplay:10.37,2013-02-26 01:36:00,
2013-02-25 17:41:00,45.2,33.8,30.17,SSW,203,1.0,2.0,64,0.00,CLR,,0.08,WeatherDisplay:10.37,2013-02-26 01:41:00,
2013-02-25 17:51:00,44.6,34.3,30.17,SSW,193,1.0,4.0,67,0.00,CLR,,0.08,WeatherDisplay:10.37,2013-02-26 01:51:00,
2013-02-25 17:56:00,44.4,34.1,30.17,SW,221,2.0,4.0,67,0.00,CLR,,0.08,WeatherDisplay:10.37,2013-02-26 01:56:00,
2013-02-25 18:01:00,44.3,34.4,30.17,SW,231,1.0,6.0,68,0.00,CLR,,0.08,WeatherDisplay:10.37,2013-02-26 02:01:00,
2013-02-25 18:11:00,43.7,34.5,30.18,SE,146,0.0,4.0,70,0.00,CLR,,0.08,WeatherDisplay:10.37,2013-02-26 02:11:00,
2013-02-25 18:16:00,43.4,34.3,30.18,SSE,154,0.0,4.0,70,0.00,CLR,,0.08,WeatherDisplay:10.37,2013-02-26 02:16:00,
2013-02-25 18:21:00,43.2,34.1,30.19,SSE,158,0.0,3.0,70,0.00,CLR,,0.08,WeatherDisplay:10.37,2013-02-26 02:21:00,
2013-02-25 18:26:00,43.0,33.9,30.19,SE,130,0.0,3.0,70,0.00,CLR,,0.08,WeatherDisplay:10.37,2013-02-26 02:26:00,
2013-02-25 18:36:00,42.6,34.2,30.20,SSE,162,1.0,4.0,72,0.00,CLR,,0.08,WeatherDisplay:10.37,2013-02-26 02:36:00,
2013-02-25 18:41:00,42.5,34.5,30.20,SSE,157,1.0,3.0,73,0.00,CLR,,0.08,WeatherDisplay:10.37,2013-02-26 02:41:00,
2013-02-25 18:46:00,42.3,34.6,30.21,SSE,151,0.0,2.0,74,0.00,CLR,,0.08,WeatherDisplay:10.37,2013-02-26 02:46:00,
2013-02-25 18:51:00,42.1,34.7,30.21,SSE,152,1.0,3.0,75,0.00,CLR,,0.08,WeatherDisplay:10.37,2013-02-26 02:51:00,
2013-02-25 18:56:00,42.0,34.6,30.21,SSE,149,1.0,2.0,75,0.00,CLR,,0.08,WeatherDisplay:10.37,2013-02-26 02:56:00,
2013-02-25 19:01:00,41.9,34.9,30.21,South,169,0.0,2.0,76,0.00,CLR,,0.08,WeatherDisplay:10.37,2013-02-26 03:01:00,
2013-02-25 19:11:00,41.5,34.5,30.22,SE,141,0.0,2.0,76,0.00,CLR,,0.08,WeatherDisplay:10.37,2013-02-26 03:11:00,
2013-02-25 19:16:00,41.3,34.6,30.22,SSE,162,0.0,2.0,77,0.00,CLR,,0.08,WeatherDisplay:10.37,2013-02-26 03:16:00,
2013-02-25 19:21:00,41.0,34.6,30.22,South,173,0.0,1.0,78,0.00,CLR,,0.08,WeatherDisplay:10.37,2013-02-26 03:21:00,
2013-02-25 19:26:00,40.7,34.7,30.22,SSW,208,0.0,2.0,79,0.00,CLR,,0.08,WeatherDisplay:10.37,2013-02-26 03:26:00,
2013-02-25 19:31:00,40.6,34.9,30.22,WSW,240,0.0,3.0,80,0.00,CLR,,0.08,WeatherDisplay:10.37,2013-02-26 03:31:00,
2013-02-25 19:36:00,40.4,34.7,30.23,SSE,158,2.0,5.0,80,0.00,CLR,,0.08,WeatherDisplay:10.37,2013-02-26 03:36:00,
2013-02-25 19:41:00,40.4,34.7,30.23,SE,142,0.0,2.0,80,0.00,CLR,,0.08,WeatherDisplay:10.37,2013-02-26 03:41:00,
2013-02-25 19:46:00,40.4,35.0,30.22,SSE,168,0.0,3.0,81,0.00,CLR,,0.08,WeatherDisplay:10.37,2013-02-26 03:46:00,
2013-02-25 19:51:00,40.5,35.1,30.23,SSW,206,1.0,5.0,81,0.00,CLR,,0.08,WeatherDisplay:10.37,2013-02-26 03:51:00,
2013-02-25 19:56:00,40.6,34.9,30.23,SSW,207,0.0,5.0,80,0.00,CLR,,0.08,WeatherDisplay:10.37,2013-02-26 03:56:00,
2013-02-25 20:01:00,40.6,35.2,30.23,SSE,168,1.0,4.0,81,0.00,CLR,,0.08,WeatherDisplay:10.37,2013-02-26 04:01:00,
2013-02-25 20:11:00,40.5,35.1,30.24,SSE,151,1.0,4.0,81,0.00,CLR,,0.08,WeatherDisplay:10.37,2013-02-26 04:11:00,
2013-02-25 20:16:00,40.5,35.1,30.25,SSE,163,0.0,4.0,81,0.00,CLR,,0.08,WeatherDisplay:10.37,2013-02-26 04:16:00,
2013-02-25 20:21:00,40.5,35.1,30.25,South,186,1.0,3.0,81,0.00,CLR,,0.08,WeatherDisplay:10.37,2013-02-26 04:21:00,
2013-02-25 20:26:00,40.5,35.1,30.25,South,184,0.0,3.0,81,0.00,CLR,,0.08,WeatherDisplay:10.37,2013-02-26 04:26:00,
2013-02-25 20:31:00,40.5,35.1,30.25,SSW,199,1.0,3.0,81,0.00,CLR,,0.08,WeatherDisplay:10.37,2013-02-26 04:31:00,
2013-02-25 20:36:00,40.5,35.1,30.25,South,179,0.0,2.0,81,0.00,CLR,,0.08,WeatherDisplay:10.37,2013-02-26 04:36:00,
2013-02-25 20:41:00,40.5,35.1,30.26,SSE,155,0.0,3.0,81,0.00,CLR,,0.08,WeatherDisplay:10.37,2013-02-26 04:41:00,
2013-02-25 20:46:00,40.4,35.0,30.26,SSE,155,0.0,2.0,81,0.00,CLR,,0.08,WeatherDisplay:10.37,2013-02-26 04:46:00,
2013-02-25 20:56:00,40.2,34.8,30.26,SSW,194,1.0,4.0,81,0.00,CLR,,0.08,WeatherDisplay:10.37,2013-02-26 04:56:00,
2013-02-25 21:01:00,40.0,35.0,30.26,South,183,0.0,3.0,82,0.00,CLR,,0.08,WeatherDisplay:10.37,2013-02-26 05:01:00,
2013-02-25 21:06:00,39.9,34.8,30.26,SSE,154,1.0,2.0,82,0.00,CLR,,0.08,WeatherDisplay:10.37,2013-02-26 05:06:00,
2013-02-25 21:11:00,39.7,34.7,30.27,SE,125,0.0,4.0,82,0.00,CLR,,0.08,WeatherDisplay:10.37,2013-02-26 05:11:00,
2013-02-25 21:16:00,39.3,34.6,30.27,East,92,0.0,2.0,83,0.00,CLR,,0.08,WeatherDisplay:10.37,2013-02-26 05:16:00,
2013-02-25 21:21:00,38.8,34.1,30.27,East,88,0.0,1.0,83,0.00,CLR,,0.08,WeatherDisplay:10.37,2013-02-26 05:21:00,
2013-02-25 21:26:00,38.5,34.1,30.27,East,98,0.0,2.0,84,0.00,CLR,,0.08,WeatherDisplay:10.37,2013-02-26 05:26:00,
2013-02-25 21:31:00,38.4,34.0,30.28,South,179,0.0,2.0,84,0.00,CLR,,0.08,WeatherDisplay:10.37,2013-02-26 05:31:00,
2013-02-25 21:36:00,38.5,34.1,30.28,South,172,1.0,2.0,84,0.00,CLR,,0.08,WeatherDisplay:10.37,2013-02-26 05:36:00,
2013-02-25 21:41:00,38.7,34.3,30.28,SSE,162,0.0,5.0,84,0.00,CLR,,0.08,WeatherDisplay:10.37,2013-02-26 05:41:00,
2013-02-25 21:46:00,38.8,34.3,30.28,South,183,0.0,3.0,84,0.00,CLR,,0.08,WeatherDisplay:10.37,2013-02-26 05:46:00,
2013-02-25 21:51:00,38.7,34.3,30.29,South,187,1.0,3.0,84,0.00,CLR,,0.08,WeatherDisplay:10.37,2013-02-26 05:51:00,
2013-02-25 21:56:00,38.7,34.2,30.29,SSW,207,1.0,3.0,84,0.00,CLR,,0.08,WeatherDisplay:10.37,2013-02-26 05:56:00,
2013-02-25 22:01:00,38.6,34.2,30.29,SSE,152,0.0,3.0,84,0.00,BKN,,0.08,WeatherDisplay:10.37,2013-02-26 06:01:00,
2013-02-25 22:06:00,38.4,34.3,30.29,SE,129,0.0,2.0,85,0.00,BKN,,0.08,WeatherDisplay:10.37,2013-02-26 06:06:00,
2013-02-25 22:11:00,38.3,34.1,30.29,SE,142,1.0,4.0,85,0.00,BKN,,0.08,WeatherDisplay:10.37,2013-02-26 06:11:00,
2013-02-25 22:16:00,38.1,34.0,30.29,SSE,162,1.0,4.0,85,0.00,BKN,,0.08,WeatherDisplay:10.37,2013-02-26 06:16:00,
2013-02-25 22:21:00,37.9,34.0,30.29,SSE,156,0.0,1.0,86,0.00,BKN,,0.08,WeatherDisplay:10.37,2013-02-26 06:21:00,
2013-02-25 22:26:00,37.5,33.7,30.29,SSE,150,0.0,1.0,86,0.00,BKN,,0.08,WeatherDisplay:10.37,2013-02-26 06:26:00,
2013-02-25 22:31:00,37.2,33.7,30.30,SSE,150,0.0,1.0,87,0.00,BKN,,0.08,WeatherDisplay:10.37,2013-02-26 06:31:00,
2013-02-25 22:36:00,37.2,33.7,30.30,SE,125,0.0,1.0,87,0.00,BKN,,0.08,WeatherDisplay:10.37,2013-02-26 06:36:00,
2013-02-25 22:41:00,36.9,33.4,30.30,ENE,76,0.0,0.0,87,0.00,BKN,,0.08,WeatherDisplay:10.37,2013-02-26 06:41:00,
2013-02-25 22:46:00,36.6,33.4,30.30,ENE,72,0.0,0.0,88,0.00,BKN,,0.08,WeatherDisplay:10.37,2013-02-26 06:46:00,
2013-02-25 22:51:00,36.4,33.1,30.30,ENE,72,0.0,0.0,88,0.00,BKN,,0.08,WeatherDisplay:10.37,2013-02-26 06:51:00,
2013-02-25 22:56:00,36.2,33.3,30.30,ENE,72,0.0,1.0,89,0.00,BKN,,0.08,WeatherDisplay:10.37,2013-02-26 06:56:00,
2013-02-25 23:01:00,36.0,33.1,30.30,ENE,73,0.0,1.0,89,0.00,BKN,,0.08,WeatherDisplay:10.37,2013-02-26 07:01:00,
2013-02-25 23:11:00,35.7,33.1,30.30,ENE,74,0.0,1.0,90,0.00,BKN,,0.08,WeatherDisplay:10.37,2013-02-26 07:11:00,
2013-02-25 23:16:00,35.5,32.9,30.30,ENE,74,0.0,0.0,90,0.00,OVC,,0.08,WeatherDisplay:10.37,2013-02-26 07:16:00,
2013-02-25 23:21:00,35.3,32.9,30.30,ENE,73,0.0,0.0,91,0.00,OVC,,0.08,WeatherDisplay:10.37,2013-02-26 07:21:00,
2013-02-25 23:26:00,35.3,32.9,30.30,ENE,74,0.0,1.0,91,0.00,OVC,,0.08,WeatherDisplay:10.37,2013-02-26 07:26:00,
2013-02-25 23:31:00,35.3,32.9,30.30,ENE,73,0.0,1.0,91,0.00,OVC,,0.08,WeatherDisplay:10.37,2013-02-26 07:31:00,
2013-02-25 23:36:00,35.2,32.8,30.30,ENE,73,0.0,1.0,91,0.00,OVC,,0.08,WeatherDisplay:10.37,2013-02-26 07:36:00,
2013-02-25 23:41:00,35.1,32.7,30.31,ENE,73,0.0,1.0,91,0.00,OVC,,0.08,WeatherDisplay:10.37,2013-02-26 07:41:00,
2013-02-25 23:46:00,35.0,32.9,30.31,ENE,73,0.0,0.0,92,0.00,OVC,,0.08,WeatherDisplay:10.37,2013-02-26 07:46:00,
2013-02-25 23:51:00,35.2,33.1,30.31,East,82,0.0,1.0,92,0.00,OVC,,0.08,WeatherDisplay:10.37,2013-02-26 07:51:00,
2013-02-25 23:56:00,35.2,33.1,30.31,ESE,115,0.0,0.0,92,0.00,OVC,,0.08,WeatherDisplay:10.37,2013-02-26 07:56:00,